[Iaude] MPEC L143: 2024 LU4 [a=0.91,e=0.24,i=24.3,H=25.3]
    mpec at cfa.harvard.edu 
    mpec at cfa.harvard.edu
       
    Sat Jun 15 00:37:54 EDT 2024
    
    
  
M.P.E.C. 2024-L143                                Issued 2024 June 15, 04:36 UT
     The Minor Planet Electronic Circulars contain information on unusual
         minor planets, routine data on comets and natural satellites,
         and occasional editorial announcements.  They are published
    on behalf of Division F of the International Astronomical Union by the
          Minor Planet Center, Smithsonian Astrophysical Observatory,
                          Cambridge, MA 02138, U.S.A.
			  
             Prepared using the Tamkin Foundation Computer Network
                              MPC at CFA.HARVARD.EDU
            URL https://www.minorplanetcenter.net/    ISSN 1523-6714
                                    2024 LU4                                    
Observations:
     K24L04U* C2024 06 13.48391616 33 22.763+09 40 43.76         20.29wXEL143F52
     K24L04U  C2024 06 13.49585516 33 16.925+09 43 42.92         20.56wXEL143F52
     K24L04U  C2024 06 13.50782816 33 11.119+09 46 41.77         20.50wXEL143F52
     K24L04U  C2024 06 13.58542416 32 34.956+10 05 45.71         20.44GVEL143F52
     K24L04U  C2024 06 13.58607716 32 34.652+10 05 55.25         20.18GVEL143F52
     K24L04U 6C2024 06 14.00360 16 29 53.18 +11 42 54.7          20.6 GVEL143Z84
     K24L04U 6C2024 06 14.00889 16 29 50.87 +11 44 04.8          20.2 GVEL143Z84
     K24L04U 6C2024 06 14.01415 16 29 48.56 +11 45 14.3          20.4 GVEL143Z84
     K24L04U KC2024 06 15.16381316 23 17.32 +15 27 47.2          20.8 GVEL143H21
     K24L04U KC2024 06 15.16950616 23 15.32 +15 28 45.0          21.0 GVEL143H21
     K24L04U KC2024 06 15.17567616 23 13.14 +15 29 47.4          20.5 GVEL143H21
Observer details:
F52 Pan-STARRS 2, Haleakala.  Observers J. Herman, T. Lowe, P. Minguez, A.
    Schultz, I. Smith.  Measurers K. Chambers, T. de Boer, J. Fairlamb, H.
    Gao, M. Huber, C.-C. Lin, E. Magnier, Y. Ramanjooloo, R. Wainscoat, R.
    Weryk.  1.8-m Ritchey-Chretien + CCD.
H21 Astronomical Research Observatory, Westfield.  Observer R. Holmes.
    Measurers T. Linder, R. Holmes, L. Horn.  0.81-m f/4.0 astrograph + CCD.
Z84 Calar Alto-Schmidt.  Observers M. Micheli, R. Kresken.  Measurers R.
    Kresken, M. Micheli, F. Ocana, L. Conversi.  0.8-m f/3 Schmidt + CCD.
Orbital elements:
2024 LU4                                                 Earth MOID = 0.0275 AU
Epoch 2024 Mar. 31.0 TT = JDT 2460400.5                 MPC                     
M  36.61033              (2000.0)            P               Q                  
n   1.13114671     Peri.  222.47003     -0.45826213     -0.79236246             
a   0.9122701      Node   258.63967     +0.88507681     -0.36529206             
e   0.2426272      Incl.   24.25102     +0.08145460     -0.48859333             
P   0.87           H   25.36          G   0.15           U   8                  
Residuals in seconds of arc
240613 F52  0.0   0.0     240613 F52  0.2-  0.1-    240615 H21  0.0   0.2+
240613 F52  0.1+  0.1+    240614 Z84  0.2-  0.0     240615 H21  0.1+  0.1+
240613 F52  0.0   0.0     240614 Z84  0.1+  0.0     240615 H21  0.1-  0.2-
240613 F52  0.0   0.1-    240614 Z84  0.0   0.1-
Ephemeris:
2024 LU4                 a,e,i = 0.91, 0.24, 24                  q = 0.6909
Date    TT    R. A. (2000) Decl.     Delta      r    Elong.  Phase     V
2024 05 16    02 59 08.4 -48 01 28   0.1692  0.9592    67.5   103.1    25.2
...
2024 05 31    01 37 28.7 -60 48 42   0.06499 1.0158    89.9    86.4    22.5
...
2024 06 08    18 06 40.7 -38 13 35   0.02884 1.0421   159.7    19.7    18.7
...
2024 06 14    16 29 57.0 +11 43 05   0.05528 1.0598   142.1    36.1    20.7
2024 06 15    16 24 07.0 +15 00 25   0.06189 1.0626   138.0    39.7    21.0
2024 06 16    16 19 20.1 +17 37 38   0.06871 1.0653   134.7    42.7    21.3
...
2024 06 22    16 02 57.3 +26 01 48   0.1117  1.0806   122.6    52.4    22.7
...
2024 06 30    15 55 14.2 +29 51 13   0.1705  1.0980   114.3    57.5    23.8
...
2024 07 15    15 55 29.7 +31 13 23   0.2785  1.1213   105.0    61.1    25.0
A. U. Tomatic                (C) Copyright 2024 MPC           M.P.E.C. 2024-L143
    
    
More information about the Iaude
mailing list